When you browse on this site, cookies collect data to enhance your experience and personalize the content and advertising you see.
Visit our Privacy Policy to learn more. By continuing to use the site, you agree to this use of cookies and data.

Hourly Weather Molepolole

Today, 11 July, Saturday

Time Temperature Precipitation Wind Pressure Humidity
00:00 +16°C° 0 mm 6 mps 661 mmHg 41%
01:00 +15°C° 0 mm 6 mps 661 mmHg 40%
02:00 +15°C° 0 mm 7 mps 661 mmHg 42%
03:00 +12°C° 0 mm 7 mps 662 mmHg 49%
04:00 +11°C° 0 mm 7 mps 662 mmHg 56%
05:00 +9°C° 0 mm 7 mps 662 mmHg 62%
06:00 +8°C° 0 mm 7 mps 663 mmHg 64%
07:00 +8°C° 0 mm 7 mps 664 mmHg 66%
08:00 +8°C° 0 mm 7 mps 665 mmHg 68%
09:00 +9°C° 0 mm 7 mps 666 mmHg 54%
10:00 +11°C° 0 mm 8 mps 666 mmHg 40%
11:00 +12°C° 0 mm 8 mps 667 mmHg 26%
12:00 +12°C° 0 mm 8 mps 667 mmHg 24%
13:00 +14°C° 0 mm 7 mps 667 mmHg 22%
14:00 +15°C° 0 mm 7 mps 667 mmHg 20%
15:00 +14°C° 0 mm 6 mps 666 mmHg 21%
16:00 +14°C° 0 mm 5 mps 666 mmHg 22%
17:00 +14°C° 0 mm 5 mps 666 mmHg 23%
18:00 +11°C° 0 mm 4 mps 666 mmHg 27%
19:00 +9°C° 0 mm 3 mps 666 mmHg 32%
20:00 +7°C° 0 mm 3 mps 666 mmHg 37%
21:00 +7°C° 0 mm 3 mps 667 mmHg 39%
22:00 +6°C° 0 mm 2 mps 667 mmHg 41%
23:00 +5°C° 0 mm 2 mps 667 mmHg 43%

Tomorrow, 12 July, Sunday

Time Temperature Precipitation Wind Pressure Humidity
00:00 +5°C° 0 mm 2 mps 667 mmHg 44%
01:00 +4°C° 0 mm 2 mps 667 mmHg 44%
02:00 +4°C° 0 mm 2 mps 667 mmHg 45%
03:00 +3°C° 0 mm 2 mps 667 mmHg 46%
04:00 +3°C° 0 mm 2 mps 667 mmHg 46%
05:00 +2°C° 0 mm 3 mps 668 mmHg 47%
06:00 +2°C° 0 mm 3 mps 668 mmHg 47%
07:00 +3°C° 0 mm 3 mps 668 mmHg 46%
08:00 +3°C° 0 mm 3 mps 669 mmHg 45%
09:00 +6°C° 0 mm 4 mps 669 mmHg 37%
10:00 +9°C° 0 mm 5 mps 669 mmHg 29%
11:00 +13°C° 0 mm 5 mps 670 mmHg 22%
12:00 +15°C° 0 mm 5 mps 669 mmHg 19%
13:00 +16°C° 0 mm 5 mps 669 mmHg 16%
14:00 +19°C° 0 mm 5 mps 669 mmHg 13%
15:00 +17°C° 0 mm 5 mps 668 mmHg 13%
16:00 +18°C° 0 mm 4 mps 668 mmHg 14%
17:00 +18°C° 0 mm 4 mps 668 mmHg 14%
18:00 +14°C° 0 mm 4 mps 667 mmHg 17%
19:00 +11°C° 0 mm 3 mps 667 mmHg 21%
20:00 +9°C° 0 mm 3 mps 667 mmHg 24%
21:00 +8°C° 0 mm 3 mps 667 mmHg 26%
22:00 +8°C° 0 mm 3 mps 667 mmHg 29%
23:00 +6°C° 0 mm 4 mps 667 mmHg 32%

Day after tomorrow, 13 July, Monday

Time Temperature Precipitation Wind Pressure Humidity
00:00 +6°C° 0 mm 4 mps 667 mmHg 35%
01:00 +5°C° 0 mm 3 mps 667 mmHg 39%
02:00 +5°C° 0 mm 3 mps 666 mmHg 43%
03:00 +4°C° 0 mm 3 mps 666 mmHg 48%
04:00 +4°C° 0 mm 2 mps 666 mmHg 53%
05:00 +3°C° 0 mm 2 mps 665 mmHg 59%
06:00 +3°C° 0 mm 2 mps 666 mmHg 58%
07:00 +4°C° 0 mm 2 mps 666 mmHg 57%
08:00 +4°C° 0 mm 2 mps 667 mmHg 56%
09:00 +8°C° 0 mm 2 mps 667 mmHg 47%
10:00 +12°C° 0 mm 2 mps 667 mmHg 38%
11:00 +16°C° 0 mm 2 mps 668 mmHg 30%
12:00 +18°C° 0 mm 3 mps 667 mmHg 24%
13:00 +20°C° 0 mm 3 mps 667 mmHg 19%
14:00 +22°C° 0 mm 3 mps 666 mmHg 13%
15:00 +22°C° 0 mm 3 mps 666 mmHg 13%
16:00 +22°C° 0 mm 3 mps 666 mmHg 13%
17:00 +21°C° 0 mm 3 mps 665 mmHg 13%
18:00 +19°C° 0 mm 3 mps 665 mmHg 16%
19:00 +16°C° 0 mm 3 mps 664 mmHg 18%
20:00 +12°C° 0 mm 3 mps 664 mmHg 21%
21:00 +12°C° 0 mm 3 mps 664 mmHg 21%
22:00 +11°C° 0 mm 3 mps 664 mmHg 21%
23:00 +10°C° 0 mm 3 mps 664 mmHg 22%

14 July, Tuesday

Time Temperature Precipitation Wind Pressure Humidity
00:00 +9°C° 0 mm 3 mps 664 mmHg 22%
01:00 +9°C° 0 mm 3 mps 664 mmHg 22%
02:00 +8°C° 0 mm 3 mps 664 mmHg 21%
03:00 +7°C° 0 mm 3 mps 664 mmHg 24%
04:00 +5°C° 0 mm 3 mps 663 mmHg 26%
05:00 +4°C° 0 mm 3 mps 663 mmHg 28%
06:00 +4°C° 0 mm 3 mps 664 mmHg 31%
07:00 +5°C° 0 mm 4 mps 665 mmHg 33%
08:00 +5°C° 0 mm 4 mps 666 mmHg 35%
09:00 +8°C° 0 mm 5 mps 667 mmHg 33%
10:00 +13°C° 0 mm 6 mps 668 mmHg 31%
11:00 +16°C° 0 mm 6 mps 668 mmHg 29%
12:00 +17°C° 0 mm 6 mps 668 mmHg 24%
13:00 +19°C° 0 mm 6 mps 668 mmHg 20%
14:00 +20°C° 0 mm 7 mps 667 mmHg 15%
15:00 +19°C° 0 mm 6 mps 667 mmHg 16%
16:00 +17°C° 0 mm 6 mps 667 mmHg 17%
17:00 +16°C° 0 mm 5 mps 667 mmHg 17%
18:00 +14°C° 0 mm 5 mps 667 mmHg 22%
19:00 +10°C° 0 mm 5 mps 667 mmHg 27%
20:00 +7°C° 0 mm 4 mps 667 mmHg 32%
21:00 +6°C° 0 mm 4 mps 668 mmHg 33%
22:00 +5°C° 0 mm 4 mps 668 mmHg 35%
23:00 +4°C° 0 mm 4 mps 669 mmHg 37%

15 July, Wednesday

Time Temperature Precipitation Wind Pressure Humidity
00:00 +4°C° 0 mm 4 mps 669 mmHg 39%
01:00 +3°C° 0 mm 4 mps 669 mmHg 41%
02:00 +1°C° 0 mm 4 mps 669 mmHg 42%
03:00 +2°C° 0 mm 3 mps 669 mmHg 43%
04:00 +1°C° 0 mm 3 mps 669 mmHg 44%
05:00 0°C° 0 mm 3 mps 669 mmHg 45%
06:00 +1°C° 0 mm 3 mps 670 mmHg 44%
07:00 +1°C° 0 mm 3 mps 670 mmHg 42%
08:00 +2°C° 0 mm 3 mps 671 mmHg 40%
09:00 +5°C° 0 mm 4 mps 672 mmHg 40%
10:00 +8°C° 0 mm 5 mps 672 mmHg 40%
11:00 +11°C° 0 mm 6 mps 673 mmHg 41%
12:00 +13°C° 0 mm 6 mps 673 mmHg 39%
13:00 +14°C° 0 mm 6 mps 672 mmHg 38%
14:00 +16°C° 0 mm 7 mps 672 mmHg 37%
15:00 +15°C° 0 mm 6 mps 672 mmHg 42%
16:00 +13°C° 0 mm 6 mps 672 mmHg 47%
17:00 +11°C° 0 mm 6 mps 672 mmHg 51%
18:00 +10°C° 0 mm 4 mps 672 mmHg 59%
19:00 +9°C° 0 mm 3 mps 672 mmHg 67%
20:00 +7°C° 0 mm 2 mps 672 mmHg 74%
21:00 +6°C° 0 mm 2 mps 672 mmHg 73%
22:00 +6°C° 0 mm 2 mps 672 mmHg 73%
23:00 +4°C° 0 mm 3 mps 672 mmHg 72%

16 July, Thursday

Time Temperature Precipitation Wind Pressure Humidity
00:00 +4°C° 0 mm 3 mps 672 mmHg 72%
01:00 +3°C° 0 mm 3 mps 672 mmHg 71%
02:00 +2°C° 0 mm 3 mps 672 mmHg 71%
03:00 +2°C° 0 mm 3 mps 672 mmHg 74%
04:00 +1°C° 0 mm 3 mps 672 mmHg 76%
05:00 +1°C° 0 mm 3 mps 672 mmHg 79%
06:00 +1°C° 0 mm 3 mps 673 mmHg 78%
07:00 +1°C° 0 mm 3 mps 673 mmHg 77%
08:00 +2°C° 0 mm 3 mps 674 mmHg 76%
09:00 +4°C° 0 mm 4 mps 674 mmHg 63%
10:00 +7°C° 0 mm 5 mps 674 mmHg 50%
11:00 +10°C° 0 mm 6 mps 675 mmHg 37%
12:00 +12°C° 0 mm 5 mps 674 mmHg 33%
13:00 +14°C° 0 mm 5 mps 674 mmHg 29%
14:00 +15°C° 0 mm 5 mps 673 mmHg 25%
15:00 +15°C° 0 mm 4 mps 673 mmHg 25%
16:00 +15°C° 0 mm 4 mps 673 mmHg 25%
17:00 +16°C° 0 mm 3 mps 673 mmHg 25%
18:00 +12°C° 0 mm 3 mps 672 mmHg 31%
19:00 +9°C° 0 mm 2 mps 672 mmHg 37%
20:00 +7°C° 0 mm 2 mps 671 mmHg 43%
21:00 +6°C° 0 mm 2 mps 671 mmHg 45%
22:00 +6°C° 0 mm 1 mps 671 mmHg 47%
23:00 +6°C° 0 mm 1 mps 671 mmHg 49%
Show more